RYR9VR EDLV-LZIB

Flight info

Callsign RYR9VR
Flight time 1h 16m
Altitude 35000
Route ERKUM1R ERKUM L179 MEVEL Z44 HMM L620 PIKIB T620 LALUK DCT KOZLI DCT BNO DCT ODNEM DCT BERVA
Aircraft B738/M-SDE2E3FGHIRWXY/LB1

Departure

Time 2026-04-27 09:13
Airport Weeze (Niederrhein) Airport (EDLV)

Arrival

Time 2026-04-27 10:29
Airport M. R. Štefánik Airport (LZIB)
Time Latitude Longitude Altitude Speed Heading
2026-04-27 08:46 51.59963 6.14657 104 ft 0 kts 92°
2026-04-27 09:04 51.59964 6.14643 103 ft 4 kts 88°
2026-04-27 09:04 51.59958 6.14604 104 ft 4 kts 50°
2026-04-27 09:04 51.59938 6.14584 103 ft 3 kts
2026-04-27 09:05 51.59929 6.14583 104 ft 0 kts
2026-04-27 09:07 51.59932 6.14583 104 ft 1 kts
2026-04-27 09:07 51.59951 6.14584 104 ft 5 kts
2026-04-27 09:07 51.59997 6.14586 104 ft 8 kts
2026-04-27 09:08 51.60046 6.14552 104 ft 9 kts 284°
2026-04-27 09:08 51.60048 6.14452 104 ft 10 kts 274°
2026-04-27 09:08 51.60053 6.14329 104 ft 12 kts 273°
2026-04-27 09:08 51.60056 6.14174 103 ft 16 kts 272°
2026-04-27 09:09 51.60060 6.13977 103 ft 19 kts 272°
2026-04-27 09:09 51.60064 6.13757 102 ft 19 kts 272°
2026-04-27 09:09 51.60069 6.13544 101 ft 19 kts 272°
2026-04-27 09:09 51.60073 6.13338 101 ft 18 kts 271°
2026-04-27 09:10 51.60077 6.13138 100 ft 18 kts 272°
2026-04-27 09:10 51.60081 6.12946 100 ft 17 kts 272°
2026-04-27 09:10 51.60086 6.12760 99 ft 17 kts 272°
2026-04-27 09:10 51.60091 6.12560 99 ft 17 kts 272°
2026-04-27 09:11 51.60113 6.12460 100 ft 8 kts 343°
2026-04-27 09:11 51.60167 6.12459 98 ft 8 kts
2026-04-27 09:11 51.60226 6.12462 98 ft 9 kts
2026-04-27 09:11 51.60283 6.12494 98 ft 9 kts 72°
2026-04-27 09:12 51.60281 6.12608 98 ft 12 kts 93°
2026-04-27 09:12 51.60274 6.12957 98 ft 64 kts 91°
2026-04-27 09:12 51.60251 6.14040 102 ft 128 kts 92°
2026-04-27 09:12 51.60213 6.15736 295 ft 164 kts 90°
2026-04-27 09:13 51.60170 6.17561 1098 ft 159 kts 89°
2026-04-27 09:13 51.60160 6.19337 1970 ft 158 kts 89°
2026-04-27 09:13 51.60187 6.21121 2694 ft 163 kts 74°
2026-04-27 09:13 51.60541 6.22877 3500 ft 167 kts 73°
2026-04-27 09:14 51.60888 6.24757 4028 ft 186 kts 73°
2026-04-27 09:14 51.61277 6.26913 4273 ft 213 kts 74°
2026-04-27 09:14 51.61707 6.29323 4503 ft 237 kts 74°
2026-04-27 09:14 51.62186 6.32012 4801 ft 258 kts 74°
2026-04-27 09:15 51.62683 6.34825 5465 ft 266 kts 74°
2026-04-27 09:15 51.63051 6.37747 6300 ft 273 kts 88°
2026-04-27 09:15 51.62990 6.40814 7122 ft 276 kts 93°
2026-04-27 09:15 51.62864 6.43922 7884 ft 281 kts 93°
2026-04-27 09:16 51.62734 6.47086 8680 ft 286 kts 93°
2026-04-27 09:16 51.62611 6.50320 9450 ft 292 kts 93°
2026-04-27 09:16 51.62497 6.53609 10274 ft 297 kts 92°
2026-04-27 09:16 51.62391 6.56969 10807 ft 309 kts 92°
2026-04-27 09:17 51.62280 6.60565 10983 ft 334 kts 92°
2026-04-27 09:17 51.62161 6.64419 11309 ft 352 kts 92°
2026-04-27 09:17 51.62195 6.68393 11888 ft 359 kts 78°
2026-04-27 09:17 51.63096 6.72123 12643 ft 359 kts 57°
2026-04-27 09:18 51.64551 6.75389 13418 ft 361 kts 51°
2026-04-27 09:18 51.66097 6.78619 14087 ft 367 kts 51°
2026-04-27 09:18 51.67657 6.81905 14715 ft 372 kts 51°
2026-04-27 09:18 51.69215 6.85254 15353 ft 376 kts 51°
2026-04-27 09:19 51.70781 6.88656 15984 ft 380 kts 51°
2026-04-27 09:19 51.71824 6.90936 16393 ft 383 kts 51°
2026-04-27 09:19 51.73412 6.94410 17014 ft 387 kts 51°
2026-04-27 09:19 51.75018 6.97928 17625 ft 392 kts 51°
2026-04-27 09:20 51.76640 7.01486 18239 ft 396 kts 51°
2026-04-27 09:20 51.78283 7.05093 18828 ft 400 kts 51°
2026-04-27 09:20 51.79941 7.08736 19334 ft 404 kts 51°
2026-04-27 09:20 51.81610 7.12409 19863 ft 408 kts 51°
2026-04-27 09:21 51.83291 7.16129 20389 ft 412 kts 53°
2026-04-27 09:21 51.84685 7.20215 20852 ft 420 kts 67°
2026-04-27 09:21 51.85484 7.24785 21377 ft 426 kts 80°
2026-04-27 09:21 51.85688 7.29582 21901 ft 430 kts 89°
2026-04-27 09:22 51.85684 7.34430 22404 ft 433 kts 90°
2026-04-27 09:22 51.85656 7.39317 22902 ft 436 kts 90°
2026-04-27 09:22 51.85638 7.44239 23369 ft 440 kts 89°
2026-04-27 09:22 51.85637 7.49206 23825 ft 444 kts 89°
2026-04-27 09:23 51.85650 7.54217 24217 ft 447 kts 89°
2026-04-27 09:23 51.85669 7.59260 24600 ft 450 kts 89°
2026-04-27 09:23 51.85686 7.64331 24987 ft 453 kts 89°
2026-04-27 09:23 51.85676 7.69435 25363 ft 456 kts 91°
2026-04-27 09:24 51.85298 7.74545 25714 ft 460 kts 102°
2026-04-27 09:24 51.84574 7.79596 26112 ft 462 kts 104°
2026-04-27 09:24 51.83812 7.84584 26483 ft 464 kts 104°
2026-04-27 09:24 51.83034 7.89661 26836 ft 467 kts 104°
2026-04-27 09:25 51.82264 7.94778 27169 ft 470 kts 104°
2026-04-27 09:25 51.81503 7.99925 27514 ft 473 kts 103°
2026-04-27 09:25 51.80745 8.05116 27853 ft 475 kts 103°
2026-04-27 09:25 51.79986 8.10325 28183 ft 478 kts 103°
2026-04-27 09:26 51.79221 8.15572 28510 ft 481 kts 103°
2026-04-27 09:26 51.78451 8.20833 28826 ft 483 kts 103°
2026-04-27 09:26 51.77672 8.26129 29139 ft 486 kts 104°
2026-04-27 09:26 51.76887 8.31444 29440 ft 488 kts 103°
2026-04-27 09:27 51.76107 8.36799 29714 ft 491 kts 103°
2026-04-27 09:27 51.75356 8.42187 30004 ft 493 kts 102°
2026-04-27 09:27 51.74617 8.47607 30296 ft 496 kts 102°
2026-04-27 09:27 51.73877 8.53046 30562 ft 497 kts 102°
2026-04-27 09:28 51.73134 8.58489 30893 ft 496 kts 102°
2026-04-27 09:28 51.72388 8.63903 31322 ft 493 kts 103°
2026-04-27 09:28 51.71641 8.69287 31677 ft 492 kts 103°
2026-04-27 09:28 51.70888 8.74673 31965 ft 493 kts 102°
2026-04-27 09:29 51.70129 8.80072 32260 ft 493 kts 103°
2026-04-27 09:29 51.69369 8.85456 32587 ft 493 kts 103°
2026-04-27 09:29 51.68607 8.90833 32925 ft 492 kts 103°
2026-04-27 09:29 51.67843 8.96202 33253 ft 491 kts 103°
2026-04-27 09:30 51.67078 9.01565 33555 ft 491 kts 103°
2026-04-27 09:30 51.66310 9.06926 33851 ft 491 kts 103°
2026-04-27 09:30 51.65541 9.12280 34143 ft 491 kts 103°
2026-04-27 09:30 51.64771 9.17625 34413 ft 490 kts 103°
2026-04-27 09:31 51.63998 9.22967 34682 ft 490 kts 103°
2026-04-27 09:31 51.63225 9.28296 34954 ft 489 kts 103°
2026-04-27 09:31 51.62449 9.33620 35183 ft 489 kts 103°
2026-04-27 09:31 51.61670 9.38954 35291 ft 491 kts 103°
2026-04-27 09:32 51.60883 9.44322 35287 ft 494 kts 103°
2026-04-27 09:32 51.59299 9.55067 35277 ft 492 kts 103°
2026-04-27 09:33 51.57722 9.65689 35279 ft 487 kts 103°
2026-04-27 09:33 51.56142 9.76259 35288 ft 486 kts 103°
2026-04-27 09:34 51.54556 9.86808 35277 ft 486 kts 103°
2026-04-27 09:34 51.52970 9.97277 35284 ft 486 kts 103°
2026-04-27 09:35 51.51364 10.07816 35272 ft 486 kts 103°
2026-04-27 09:35 51.49746 10.18365 35280 ft 487 kts 103°
2026-04-27 09:36 51.48115 10.28926 35277 ft 488 kts 103°
2026-04-27 09:36 51.46472 10.39506 35272 ft 489 kts 103°
2026-04-27 09:37 51.44816 10.50100 35276 ft 490 kts 103°
2026-04-27 09:37 51.43133 10.60700 35276 ft 491 kts 103°
2026-04-27 09:38 51.41432 10.71313 35276 ft 492 kts 103°
2026-04-27 09:38 51.39724 10.81927 35273 ft 492 kts 103°
2026-04-27 09:39 51.38007 10.92542 35284 ft 492 kts 103°
2026-04-27 09:39 51.36296 11.03141 35272 ft 492 kts 103°
2026-04-27 09:40 51.34589 11.13729 35278 ft 491 kts 103°
2026-04-27 09:40 51.32873 11.24303 35276 ft 491 kts 103°
2026-04-27 09:41 51.31147 11.34855 35271 ft 491 kts 103°
2026-04-27 09:41 51.29417 11.45389 35275 ft 490 kts 103°
2026-04-27 09:42 51.27610 11.55890 35285 ft 490 kts 104°
2026-04-27 09:42 51.25825 11.66386 35275 ft 490 kts 103°
2026-04-27 09:43 51.24092 11.76900 35268 ft 490 kts 103°
2026-04-27 09:43 51.22336 11.87398 35277 ft 490 kts 103°
2026-04-27 09:44 51.20557 11.97887 35286 ft 490 kts 103°
2026-04-27 09:44 51.18744 12.08371 35270 ft 491 kts 103°
2026-04-27 09:45 51.16934 12.18786 35266 ft 491 kts 103°
2026-04-27 09:45 51.15105 12.29249 35282 ft 491 kts 103°
2026-04-27 09:46 51.13260 12.39708 35289 ft 491 kts 104°
2026-04-27 09:46 51.11407 12.50165 35294 ft 491 kts 103°
2026-04-27 09:47 51.09547 12.60617 35289 ft 491 kts 103°
2026-04-27 09:47 51.07665 12.71054 35289 ft 491 kts 104°
2026-04-27 09:48 51.05762 12.81483 35280 ft 491 kts 104°
2026-04-27 09:48 51.03853 12.91900 35287 ft 491 kts 103°
2026-04-27 09:49 51.01938 13.02310 35272 ft 491 kts 103°
2026-04-27 09:49 51.00014 13.12713 35267 ft 491 kts 104°
2026-04-27 09:50 50.98082 13.23101 35266 ft 491 kts 104°
2026-04-27 09:50 50.96144 13.33483 35285 ft 490 kts 103°
2026-04-27 09:51 50.94307 13.43893 35277 ft 490 kts 102°
2026-04-27 09:51 50.92441 13.54289 35277 ft 491 kts 103°
2026-04-27 09:52 50.90476 13.64650 35274 ft 491 kts 104°
2026-04-27 09:52 50.87560 13.74373 35274 ft 495 kts 123°
2026-04-27 09:53 50.83145 13.82838 35276 ft 496 kts 130°
2026-04-27 09:53 50.78752 13.91164 35262 ft 496 kts 128°
2026-04-27 09:54 50.74512 13.99767 35261 ft 496 kts 127°
2026-04-27 09:54 50.70306 14.08395 35259 ft 496 kts 127°
2026-04-27 09:55 50.66080 14.16972 35272 ft 495 kts 127°
2026-04-27 09:55 50.59706 14.29775 35262 ft 495 kts 127°
2026-04-27 09:56 50.55445 14.38290 35273 ft 495 kts 127°
2026-04-27 09:56 50.51184 14.46782 35274 ft 495 kts 127°
2026-04-27 09:57 50.46914 14.55267 35273 ft 495 kts 127°
2026-04-27 09:57 50.42634 14.63744 35272 ft 495 kts 127°
2026-04-27 09:58 50.38350 14.72201 35255 ft 495 kts 127°
2026-04-27 09:58 50.34066 14.80631 35278 ft 495 kts 127°
2026-04-27 09:59 50.29773 14.89051 35292 ft 495 kts 127°
2026-04-27 09:59 50.25478 14.97448 35275 ft 495 kts 127°
2026-04-27 10:00 50.21176 15.05833 35266 ft 495 kts 127°
2026-04-27 10:00 50.16869 15.14201 35264 ft 494 kts 127°
2026-04-27 10:01 50.12560 15.22548 35269 ft 494 kts 128°
2026-04-27 10:01 50.08242 15.30887 35286 ft 494 kts 127°
2026-04-27 10:02 50.03747 15.38990 35281 ft 495 kts 134°
2026-04-27 10:02 49.98789 15.46424 35280 ft 495 kts 136°
2026-04-27 10:03 49.93827 15.53676 35260 ft 478 kts 136°
2026-04-27 10:03 49.91452 15.57183 35238 ft 464 kts 136°
2026-04-27 10:03 49.89155 15.60596 35229 ft 451 kts 135°
2026-04-27 10:04 49.86920 15.63933 35127 ft 442 kts 135°
2026-04-27 10:04 49.84714 15.67231 34810 ft 440 kts 135°
2026-04-27 10:04 49.82507 15.70531 34255 ft 443 kts 135°
2026-04-27 10:04 49.80253 15.73899 33121 ft 459 kts 135°
2026-04-27 10:05 49.77902 15.77408 31764 ft 480 kts 135°
2026-04-27 10:05 49.75476 15.81020 31018 ft 485 kts 135°
2026-04-27 10:05 49.73057 15.84612 30672 ft 479 kts 135°
2026-04-27 10:05 49.70667 15.88153 30379 ft 473 kts 135°
2026-04-27 10:06 49.69066 15.90522 30100 ft 470 kts 135°
2026-04-27 10:06 49.66747 15.93951 29628 ft 466 kts 135°
2026-04-27 10:06 49.64412 15.97399 29174 ft 463 kts 135°
2026-04-27 10:06 49.62097 16.00815 28717 ft 459 kts 135°
2026-04-27 10:07 49.59800 16.04199 28281 ft 455 kts 135°
2026-04-27 10:07 49.57520 16.07554 27838 ft 451 kts 135°
2026-04-27 10:07 49.55257 16.10878 27411 ft 448 kts 135°
2026-04-27 10:07 49.53014 16.14170 26981 ft 444 kts 135°
2026-04-27 10:08 49.50784 16.17436 26540 ft 441 kts 135°
2026-04-27 10:08 49.48573 16.20672 26149 ft 437 kts 135°
2026-04-27 10:08 49.46380 16.23877 25751 ft 433 kts 135°
2026-04-27 10:08 49.44203 16.27056 25345 ft 430 kts 135°
2026-04-27 10:09 49.42038 16.30211 24960 ft 428 kts 135°
2026-04-27 10:09 49.39890 16.33340 24568 ft 425 kts 135°
2026-04-27 10:09 49.37750 16.36451 24195 ft 422 kts 135°
2026-04-27 10:09 49.35627 16.39534 23805 ft 419 kts 136°
2026-04-27 10:10 49.33519 16.42592 23361 ft 416 kts 136°
2026-04-27 10:10 49.31424 16.45626 22950 ft 413 kts 136°
2026-04-27 10:10 49.29347 16.48632 22546 ft 409 kts 136°
2026-04-27 10:10 49.27284 16.51614 22134 ft 406 kts 136°
2026-04-27 10:11 49.25236 16.54571 21729 ft 403 kts 136°
2026-04-27 10:11 49.23198 16.57509 21322 ft 401 kts 136°
2026-04-27 10:11 49.21177 16.60421 20931 ft 398 kts 136°
2026-04-27 10:11 49.19171 16.63308 20556 ft 395 kts 136°
2026-04-27 10:12 49.17175 16.66176 20169 ft 392 kts 137°
2026-04-27 10:12 49.15191 16.69025 19785 ft 390 kts 136°
2026-04-27 10:12 49.13273 16.71934 19411 ft 388 kts 134°
2026-04-27 10:12 49.11420 16.74908 19045 ft 385 kts 133°
2026-04-27 10:13 49.09593 16.77890 18674 ft 383 kts 133°
2026-04-27 10:13 49.07782 16.80848 18287 ft 381 kts 133°
2026-04-27 10:13 49.05973 16.83785 17889 ft 378 kts 133°
2026-04-27 10:13 49.04172 16.86694 17506 ft 376 kts 133°
2026-04-27 10:14 49.02404 16.89536 17124 ft 373 kts 134°
2026-04-27 10:14 49.00621 16.92395 16744 ft 371 kts 134°
2026-04-27 10:14 48.98822 16.95272 16365 ft 369 kts 134°
2026-04-27 10:14 48.97079 16.98058 15982 ft 368 kts 134°
2026-04-27 10:15 48.95318 17.00867 15616 ft 366 kts 134°
2026-04-27 10:15 48.93567 17.03657 15257 ft 363 kts 134°
2026-04-27 10:15 48.91828 17.06426 14881 ft 361 kts 134°
2026-04-27 10:15 48.90097 17.09182 14556 ft 358 kts 134°
2026-04-27 10:16 48.88381 17.11909 14204 ft 356 kts 134°
2026-04-27 10:16 48.86671 17.14624 13829 ft 355 kts 134°
2026-04-27 10:16 48.84968 17.17325 13443 ft 353 kts 134°
2026-04-27 10:16 48.83282 17.20008 13071 ft 350 kts 134°
2026-04-27 10:17 48.81607 17.22681 12715 ft 348 kts 134°
2026-04-27 10:17 48.79945 17.25332 12366 ft 346 kts 134°
2026-04-27 10:17 48.78291 17.27969 12018 ft 344 kts 134°
2026-04-27 10:17 48.76652 17.30578 11759 ft 339 kts 134°
2026-04-27 10:18 48.75050 17.33125 11681 ft 328 kts 134°
2026-04-27 10:18 48.73499 17.35589 11593 ft 318 kts 134°
2026-04-27 10:18 48.71995 17.37975 11525 ft 308 kts 134°
2026-04-27 10:18 48.70533 17.40294 11377 ft 302 kts 134°
2026-04-27 10:19 48.69087 17.42586 11115 ft 300 kts 134°
2026-04-27 10:19 48.67643 17.44870 10826 ft 300 kts 134°
2026-04-27 10:19 48.66202 17.47150 10586 ft 299 kts 134°
2026-04-27 10:19 48.64769 17.49412 10347 ft 297 kts 134°
2026-04-27 10:20 48.63340 17.51664 10104 ft 296 kts 135°
2026-04-27 10:20 48.61671 17.53410 9774 ft 292 kts 163°
2026-04-27 10:20 48.59712 17.53896 9515 ft 283 kts 185°
2026-04-27 10:20 48.57763 17.53683 9269 ft 280 kts 188°
2026-04-27 10:21 48.55826 17.53404 8980 ft 279 kts 188°
2026-04-27 10:21 48.53897 17.53126 8716 ft 278 kts 188°
2026-04-27 10:21 48.51979 17.52859 8474 ft 276 kts 188°
2026-04-27 10:21 48.50074 17.52602 8247 ft 274 kts 187°
2026-04-27 10:22 48.48181 17.52355 8003 ft 272 kts 187°
2026-04-27 10:22 48.46304 17.52113 7741 ft 270 kts 187°
2026-04-27 10:22 48.44433 17.51872 7487 ft 269 kts 187°
2026-04-27 10:22 48.42599 17.51638 7250 ft 267 kts 187°
2026-04-27 10:23 48.40744 17.51401 7127 ft 260 kts 187°
2026-04-27 10:23 48.38989 17.51177 7003 ft 254 kts 187°
2026-04-27 10:23 48.37335 17.50521 6886 ft 241 kts 215°
2026-04-27 10:23 48.36075 17.48980 6779 ft 226 kts 226°
2026-04-27 10:24 48.34985 17.47376 6523 ft 217 kts 227°
2026-04-27 10:24 48.33946 17.45774 6152 ft 211 kts 228°
2026-04-27 10:24 48.32919 17.44217 5762 ft 207 kts 226°
2026-04-27 10:24 48.31896 17.42721 5371 ft 203 kts 225°
2026-04-27 10:25 48.30884 17.41260 4951 ft 199 kts 224°
2026-04-27 10:25 48.29901 17.39847 4507 ft 192 kts 224°
2026-04-27 10:25 48.28945 17.38471 4072 ft 185 kts 223°
2026-04-27 10:25 48.28050 17.37184 3629 ft 178 kts 223°
2026-04-27 10:26 48.27160 17.35903 3113 ft 175 kts 223°
2026-04-27 10:26 48.26300 17.34667 2764 ft 164 kts 221°
2026-04-27 10:26 48.25500 17.33523 2541 ft 156 kts 221°
2026-04-27 10:26 48.24714 17.32390 2334 ft 159 kts 223°
2026-04-27 10:27 48.23921 17.31240 2111 ft 159 kts 223°
2026-04-27 10:27 48.23130 17.30088 1864 ft 157 kts 223°
2026-04-27 10:27 48.22352 17.28949 1680 ft 157 kts 221°
2026-04-27 10:27 48.21561 17.27816 1489 ft 157 kts 220°
2026-04-27 10:28 48.20772 17.26687 1293 ft 157 kts 221°
2026-04-27 10:28 48.19988 17.25551 1089 ft 158 kts 221°
2026-04-27 10:28 48.19188 17.24411 850 ft 159 kts 222°
2026-04-27 10:28 48.18393 17.23257 614 ft 158 kts 222°
2026-04-27 10:29 48.17607 17.22138 428 ft 151 kts 222°
2026-04-27 10:29 48.16965 17.21210 423 ft 98 kts 223°
2026-04-27 10:29 48.16628 17.20731 425 ft 35 kts 223°
2026-04-27 10:29 48.16575 17.20626 428 ft 6 kts 255°
2026-04-27 10:30 48.16590 17.20555 425 ft 9 kts 310°
2026-04-27 10:30 48.16635 17.20480 432 ft 10 kts 315°
2026-04-27 10:30 48.16683 17.20408 429 ft 10 kts 314°
2026-04-27 10:30 48.16730 17.20337 431 ft 9 kts 314°
2026-04-27 10:31 48.16775 17.20267 427 ft 10 kts 314°
2026-04-27 10:31 48.16824 17.20192 431 ft 10 kts 314°
2026-04-27 10:31 48.16870 17.20154 423 ft 7 kts
2026-04-27 10:31 48.16913 17.20176 431 ft 7 kts 339°
2026-04-27 10:32 48.16940 17.20139 420 ft 3 kts 315°
2026-04-27 10:32 48.16947 17.20130 431 ft 0 kts 314°